124  
ASUS44 KMEG 280610  
RWRMEG  
MEMPHIS CWA HOURLY WEATHER ROUNDUP  
NATIONAL WEATHER SERVICE MEMPHIS TN  
1200 AM CST SUN FEB 28 2021  
   
..WEST TENNESSEE
 
 
 
CITY SKY/WX TMP DP RH WIND PRES REMARKS
 
MEMPHIS INTL MOCLDY 63 61 93 S10 29.94F  
6HR MIN TEMP: 57; 6HR MAX TEMP: 64; 6HR PCP: 0.08;  
 
NWS MEMPHIS N/A 61 N/A N/A MISG N/A  
JACKSON MOCLDY 63 61 93 S8 29.96F  
6HR MIN TEMP: 57; 6HR MAX TEMP: 63; 6HR PCP: 0.42;  
 
COVINGTON FOG 55 55 100 SE6 29.93F VSB 1/4  
SOMERVILLE CLOUDY 64 64 100 S8 29.94F  
LEXINGTON CLOUDY 61 61 100 SE5 29.97F  
SELMER CLOUDY 64 64 100 S9 29.98F  
DYERSBURG MOCLDY 57 57 100 SE5 29.94F  
6HR MIN TEMP: 54; 6HR MAX TEMP: 58;  
 
UNION CITY MOCLDY 57 57 100 SE5 29.93F  
PARIS CLOUDY 57 57 100 SE9 29.95F FOG  
HUNTINGDON CLOUDY 59 59 100 SE5 29.95F  
 
   
..EASTERN ARKANSAS
 
 
 
CITY SKY/WX TMP DP RH WIND PRES REMARKS
 
JONESBORO FOG 53 52 96 CALM 29.92S VSB 1/4  
WEST MEMPHIS MOCLDY 59 59 100 S9 29.91F  
6HR MIN TEMP: 55; 6HR MAX TEMP: 59; 6HR PCP: 0.01;  
 
BATESVILLE LGT RAIN 51 50 96 E5 29.91F VSB 1/4  
6HR MIN TEMP: 47; 6HR MAX TEMP: 51;  
 
NEWPORT FOG 48 48 100 NW3 29.92S VSB 1/4  
6HR MIN TEMP: 48; 6HR MAX TEMP: 49; 6HR PCP: 0.01;  
 
WALNUT RIDGE FOG 49 49 100 CALM 29.91F VSB 1/4  
6HR MIN TEMP: 48; 6HR MAX TEMP: 50; 6HR PCP: 0.06;  
 
BLYTHEVILLE PTCLDY 56 55 97 SE7 29.91F FOG  
6HR MIN TEMP: 53; 6HR MAX TEMP: 57; 6HR PCP: 0.07;  
 
SEARCY LGT RAIN 49 49 100 CALM 29.92F VSB 1/4  
6HR MIN TEMP: 49; 6HR MAX TEMP: 49; 6HR PCP: TRACE;  
 
STUTTGART CLOUDY 56 56 100 S14 29.92F  
6HR MIN TEMP: 51; 6HR MAX TEMP: 56; 6HR PCP: TRACE;  
 
PINE BLUFF CLOUDY 53 52 96 SE6 29.92F FOG  
6HR MIN TEMP: 51; 6HR MAX TEMP: 53;  
 
MONTICELLO CLOUDY 64 63 96 S6 29.94S  
6HR MIN TEMP: 56; 6HR MAX TEMP: 64;  
 
   
..NORTH MISSISSIPPI
 
 
 
CITY SKY/WX TMP DP RH WIND PRES REMARKS
 
TUPELO MOCLDY 68 64 87 S9 30.01S  
6HR MIN TEMP: 68; 6HR MAX TEMP: 72;  
 
OXFORD CLOUDY 66 61 82 S9G17 29.99F  
BATESVILLE CLOUDY 68 63 83 S8 29.96F  
OLIVE BRANCH MOCLDY 64 64 100 S9 29.94F  
TUNICA MOCLDY 61 61 100 S13 29.95S  
CLARKSDALE N/A 66 66 100 S7 29.96R  
CORINTH CLOUDY 66 63 88 S7 29.99S  
GREENWOOD MOCLDY 71 65 81 S13 29.99S  
6HR MIN TEMP: 71; 6HR MAX TEMP: 74;  
 
COLUMBUS PTCLDY 69 64 84 S15G21 30.04S  
6HR MIN TEMP: 64; 6HR MAX TEMP: 72; 6HR PCP: TRACE;  
 
STARKVILLE PTCLDY 63 63 100 S8 30.05S  
GOLDEN TRIANGL PTCLDY 68 68 100 S16 30.05S  
6HR MIN TEMP: 68; 6HR MAX TEMP: 73;  
 
   
..SOUTHEAST MISSOURI
 
 
 
CITY SKY/WX TMP DP RH WIND PRES REMARKS
 
KENNETT CLOUDY 54 54 100 VRB3 29.91F FOG  
MALDEN CLOUDY 54 54 100 SE3 29.93F FOG  
WEST PLAINS FOG 49 48 97 S8 29.88F VSB 1/4  
6HR MIN TEMP: 47; 6HR MAX TEMP: 50; 6HR PCP: 0.74;  
 
POPLAR BLUFF CLOUDY 51 50 96 CALM 29.91F FOG  
6HR MIN TEMP: 50; 6HR MAX TEMP: 52; 6HR PCP: 0.30;  
 
CAPE GIRARDEAU LGT RAIN 54 52 93 CALM 29.93R FOG  
6HR MIN TEMP: 52; 6HR MAX TEMP: 55; 6HR PCP: 0.36;  
 
   
..NORTHWEST ALABAMA
 
 
 
CITY SKY/WX TMP DP RH WIND PRES REMARKS
 
MUSCLE SHOALS CLOUDY 70 60 70 S17 30.02S  
6HR MIN TEMP: 63; 6HR MAX TEMP: 71;  
 
   
..MIDDLE TENNESSEE
 
 
 
CITY SKY/WX TMP DP RH WIND PRES REMARKS
 
NASHVILLE FOG 58 56 93 S5 30.02F VSB 1/2  
6HR MIN TEMP: 57; 6HR MAX TEMP: 61; 6HR PCP: 0.86;  
 
CLARKSVILLE CLOUDY 56 56 100 SE3 30.00S FOG  
6HR MIN TEMP: 53; 6HR MAX TEMP: 57; 6HR PCP: 0.39;  
 
DICKSON CLOUDY 57 57 100 VRB3 29.98F FOG  
COLUMBIA MOCLDY 66 66 100 S9G17 29.99F  
LAWRENCEBURG CLOUDY 64 61 88 S6G13 30.04R  
LEWISBURG MOCLDY 66 63 88 S12 30.02R  
 
   
..WESTERN KENTUCKY
 
 
 
CITY SKY/WX TMP DP RH WIND PRES REMARKS
 
PADUCAH LGT RAIN 55 53 93 SE6 29.94F FOG  
6HR MIN TEMP: 53; 6HR MAX TEMP: 55; 6HR PCP: 0.26;  
 
FORT CAMPBELL MOCLDY 56 56 100 E6 29.98  
6HR MIN TEMP: 53; 6HR MAX TEMP: 56; 6HR PCP: 0.31;  
 
   
..CENTRAL ARKANSAS
 
 
 
CITY SKY/WX TMP DP RH WIND PRES REMARKS
 
LITTLE ROCK FOG 51 50 96 CALM 29.91F VSB 1/16  
6HR MIN TEMP: 50; 6HR MAX TEMP: 51;  
 
SKY/WX REPORTED AS FAIR MEANS FEW OR NO CLOUDS BELOW  
12 THOUSAND FEET.  
 
 
 
CLICK HERE TO GO TO PREVIOUS BULLETINS.

The Nexlab TN Page
The Nexlab MS Page
The Nexlab AR Page Main Text Page